[[{"header":{"parameterUnit":"m.s-1","parameterCategory":1,"la1":30.2991,"la2":30.254,"lo1":-89.0895,"lo2":-89.0444,"dy":0.0017,"dx":0.0017,"nx":28,"ny":28,"refTime":"2023-10-04T09:00:00:Z","depth":0,"parameterNumber":2,"parameterNumberName":"U-component_of_WINDS"},"data":[0,0,0,0,0,0,0,0,0,0,0,0,0,0,0,0,0,0,0,0,0,0,0,0,0,0,0,0,0,0,0,0,0,0,0,0,0,0,0,0,0,0,0,0,0,0,0,0,0,0,0,0,0,0,0,0,0,0,-4.6786,-4.6786,0,-4.684,-4.684,-4.6841,-4.6772,-4.677,-4.6767,-4.6765,-4.682,-4.6824,-4.6828,0,0,0,0,0,0,0,0,0,0,0,0,0,-4.6624,-4.6627,-4.6786,-4.6786,-4.6787,-4.684,-4.684,-4.6841,-4.6773,-4.677,-4.6767,-4.6764,-4.6819,-4.6824,-4.6828,0,0,0,0,0,0,0,0,0,0,0,0,0,-4.6688,-4.6628,-4.6785,-4.6759,-4.6757,-4.6839,-4.684,-4.6841,-4.6773,-4.677,-4.6766,-4.6762,-4.6818,-4.6823,-4.6829,-4.6939,0,0,-4.6846,-4.6849,0,0,0,0,0,0,0,0,-4.6684,-4.6694,-4.6762,-4.6761,-4.6759,-4.6795,-4.6804,-4.6874,-4.6774,-4.6767,-4.6765,-4.676,-4.6815,-4.6821,-4.6839,-4.6942,-4.6944,-4.6847,-4.685,-4.6853,-4.6854,0,0,0,0,0,0,0,-4.668,-4.6691,-4.6807,-4.6763,-4.6762,-4.6745,-4.675,-4.6817,-4.6812,-4.6768,-4.6763,-4.677,-4.6814,-4.6834,-4.684,-4.6945,-4.6847,-4.6852,-4.6855,-4.6857,-4.7143,-4.7147,0,0,0,0,0,0,-4.6678,-4.6688,-4.6805,-4.6809,-4.6712,-4.6751,-4.6756,-4.6788,-4.6811,-4.6811,-4.6773,-4.6767,-4.6826,-4.6833,-4.6842,-4.6973,-4.6853,-4.6858,-4.6861,-4.7139,-4.7144,-4.7148,0,0,0,0,0,0,-4.6675,-4.6689,-4.6803,-4.6747,-4.676,-4.6758,-4.6793,-4.6791,-4.6811,-4.6815,-4.6814,-4.6795,-4.6823,-4.6834,-4.6916,-4.6974,-4.6861,-4.6866,-4.7134,-4.714,-4.7146,-4.7237,0,0,0,0,0,0,-4.6671,-4.6689,-4.673,-4.6748,-4.6763,-4.6876,-4.6797,-4.6794,-4.6821,-4.6813,-4.6835,-4.6835,-4.6821,-4.6908,-4.6922,-4.698,-4.687,-4.7129,-4.7137,-4.7144,-4.7229,-4.7246,-4.726,0,0,0,0,0,-4.6665,-4.6754,-4.6733,-4.6747,-4.6815,-4.688,-4.6888,-4.6871,-4.6826,-4.6868,-4.6871,-4.6834,-4.6966,-4.6917,-4.6932,-4.6993,-4.7125,-4.7134,-4.7143,-4.7222,-4.7243,-4.726,0,0,0,0,0,0,-4.6742,-4.6755,-4.6732,-4.6829,-4.6854,-4.6868,-4.692,-4.6893,-4.693,-4.6921,-4.6898,-4.6903,-4.6991,-4.7,-4.6945,-4.7102,-4.7038,-4.7051,-4.7093,-4.7112,-4.7128,-4.7123,-4.6875,0,0,0,0,0,-4.677,-4.6822,-4.683,-4.6915,-4.6929,-4.6923,-4.695,-4.6935,-4.6959,-4.6969,-4.6978,-4.7003,-4.705,-4.7082,-4.7125,-4.723,-4.7235,-4.728,-4.7296,-4.7308,-4.732,-4.7377,-4.7398,-4.7179,-4.7179,-4.7179,0,0,-4.6829,-4.6843,-4.6876,-4.6931,-4.6948,-4.7002,-4.6932,-4.6991,-4.7031,-4.6978,-4.7056,-4.7064,-4.7091,-4.7186,-4.7228,-4.7196,-4.7381,-4.732,-4.733,-4.7335,-4.7389,-4.741,-4.7428,-4.7185,-4.7184,-4.7183,0,0,-4.6964,-4.6979,-4.7052,-4.7071,-4.7098,-4.7094,-4.7112,-4.713,-4.7134,-4.7212,-4.7174,-4.7221,-4.7302,-4.7323,-4.7345,-4.749,-4.7458,-4.7505,-4.7586,-4.7642,-4.7659,-4.7675,-4.7727,-4.7746,-4.7516,-4.7516,-4.7516,0,-4.7033,-4.7113,-4.7093,-4.7156,-4.7181,-4.7136,-4.721,-4.7229,-4.7269,-4.7288,-4.7252,-4.7354,-4.7369,-4.7468,-4.7504,-4.7523,-4.7543,-4.7501,-4.7659,-4.7674,-4.7687,-4.7737,-4.7757,-4.7522,-4.7521,-4.752,-4.752,0,-4.7197,-4.7253,-4.7309,-4.7349,-4.7381,-4.7449,-4.744,-4.7474,-4.7457,-4.7456,-4.7538,-4.7554,-4.7601,-4.7623,-4.7606,-4.7721,-4.7701,-4.7662,-4.7597,-4.7714,-4.776,-4.7779,-4.7529,-4.7527,-4.7526,-4.7524,0,0,-4.7381,-4.7411,-4.7431,-4.745,-4.7477,-4.752,-4.7587,-4.7633,-4.7663,-4.7693,-4.7749,-4.7819,-4.7784,-4.7809,-4.7794,-4.7843,-4.7958,-4.7799,-4.7799,-4.7828,-4.8087,-4.8116,-4.8138,-4.7938,-4.7941,-4.7944,-4.8085,0,-4.7516,-4.7631,-4.7616,-4.7726,-4.7778,-4.7737,-4.7795,-4.7819,-4.7821,-4.7865,-4.7868,-4.7919,-4.7868,-4.7883,-4.793,-4.7934,-4.801,-4.7924,-4.799,-4.7992,-4.7984,-4.8162,-4.8192,-4.8324,-4.8103,-4.8106,-4.8108,0,-4.7688,-4.7725,-4.7841,-4.7862,-4.7883,-4.7936,-4.7977,-4.802,-4.8047,-4.8045,-4.8074,-4.805,-4.8118,-4.8052,-4.8146,-4.8088,-4.8114,-4.812,-4.8125,-4.813,-4.8057,-4.8172,-4.8366,-4.8386,-4.8136,-4.8134,-4.8132,0,-4.7811,-4.789,-4.7969,-4.7986,-4.8013,-4.8051,-4.8063,-4.8086,-4.8115,-4.8152,-4.8171,-4.8215,-4.8239,-4.8274,-4.8264,-4.8217,-4.836,-4.8293,-4.836,-4.8361,-4.8392,-4.839,-4.8593,-4.8409,-4.8409,-4.8408,-4.8408,0,-4.7964,-4.8036,-4.8025,-4.8074,-4.8155,-4.8137,-4.8217,-4.8225,-4.8246,-4.8296,-4.8264,-4.8312,-4.8295,-4.8343,-4.8335,-4.8414,-4.8425,-4.8426,-4.8423,-4.8429,-4.8429,-4.8445,-4.8436,-4.8414,-4.8413,-4.8412,-4.8411,0,-4.8114,-4.8109,-4.8194,-4.8212,-4.8218,-4.8277,-4.8293,-4.834,-4.834,-4.8404,-4.8418,-4.8419,-4.8473,-4.8466,-4.8527,-4.8522,-4.862,-4.8606,-4.8611,-4.8608,-4.8676,-4.867,-4.8896,-4.8925,-4.8723,-4.8725,-4.8727,0,-4.8211,-4.8266,-4.8291,-4.8323,-4.8338,-4.8389,-4.8419,-4.8404,-4.8437,-4.8472,-4.8515,-4.8566,-4.8606,-4.8695,-4.8701,-4.8748,-4.8735,-4.8811,-4.8742,-4.8746,-4.8737,-4.8734,-4.8739,-4.8825,-4.8827,-4.8829,-4.883,0,-4.8385,-4.838,-4.8424,-4.8469,-4.8505,-4.8539,-4.857,-4.8597,-4.8586,-4.8624,-4.8679,-4.8711,-4.8773,-4.8825,-4.887,-4.8883,-4.8856,-4.8853,-4.8871,-4.8877,-4.8878,-4.8879,-4.8649,-4.8847,-4.8845,-4.8844,-4.8843,-4.8843,-4.8512,-4.8559,-4.8584,-4.8635,-4.8657,-4.8687,-4.8732,-4.8738,-4.8784,-4.8833,-4.8822,-4.8885,-4.8911,-4.8968,-4.8987,-4.9036,-4.9008,-4.9034,-4.9041,-4.9048,-4.9056,-4.887,-4.9044,-4.9044,-4.9043,-4.9043,-4.9043,0,-4.8684,-4.8698,-4.8745,-4.879,-4.883,-4.8801,-4.8834,-4.8869,-4.8925,-4.8952,-4.8993,-4.9057,-4.9108,-4.9119,-4.9167,-4.9205,-4.9194,-4.9218,-4.9215,-4.9219,-4.9078,-4.9057,-4.9227,-4.9227,-4.9227,-4.9227,-4.9227,-4.9226,-4.8778,-4.8857,-4.8856,-4.8946,-4.896,-4.9021,-4.9043,-4.907,-4.9092,-4.9165,-4.9207,-4.9214,-4.9235,-4.9285,-4.9331,-4.9333,-4.9353,-4.9382,-4.938,-4.9247,-4.9229,-4.9211,-4.9192,-4.9387,-4.9387,-4.9516,-4.9518,-4.9519]},{"header":{"parameterUnit":"m.s-1","parameterCategory":1,"la1":30.2991,"la2":30.254,"lo1":-89.0895,"lo2":-89.0444,"dy":0.0017,"dx":0.0017,"nx":28,"ny":28,"refTime":"2023-10-04T09:00:00:Z","depth":0,"parameterNumber":3,"parameterNumberName":"V-component_of_WINDS"},"data":[0,0,0,0,0,0,0,0,0,0,0,0,0,0,0,0,0,0,0,0,0,0,0,0,0,0,0,0,0,0,0,0,0,0,0,0,0,0,0,0,0,0,0,0,0,0,0,0,0,0,0,0,0,0,0,0,0,0,1.0593,1.0594,0,1.0671,1.0672,1.0673,1.0681,1.068,1.068,1.0679,1.0756,1.0759,1.0762,0,0,0,0,0,0,0,0,0,0,0,0,0,1.0451,1.0454,1.0593,1.0594,1.0595,1.0671,1.0672,1.0673,1.0681,1.068,1.0679,1.0679,1.0756,1.0759,1.0762,0,0,0,0,0,0,0,0,0,0,0,0,0,1.0519,1.0454,1.0593,1.0608,1.061,1.0671,1.0672,1.0673,1.0682,1.068,1.0679,1.0678,1.0754,1.0759,1.0763,1.0812,0,0,1.0775,1.0777,0,0,0,0,0,0,0,0,1.0515,1.0524,1.0605,1.0607,1.061,1.0665,1.065,1.072,1.0682,1.0655,1.0679,1.0678,1.0727,1.0733,1.075,1.0816,1.0819,1.0776,1.0778,1.078,1.0781,0,0,0,0,0,0,0,1.0511,1.0521,1.0624,1.0606,1.0609,1.0611,1.062,1.0664,1.0696,1.0657,1.0658,1.0667,1.0728,1.0746,1.0752,1.082,1.0776,1.0779,1.0782,1.0784,1.0934,1.0935,0,0,0,0,0,0,1.0503,1.0517,1.0621,1.0626,1.0559,1.0615,1.0624,1.0649,1.0696,1.0702,1.0668,1.0667,1.074,1.0747,1.0755,1.0819,1.078,1.0784,1.0786,1.0932,1.0934,1.0936,0,0,0,0,0,0,1.05,1.0512,1.0618,1.0572,1.0586,1.0619,1.0646,1.0651,1.0669,1.0704,1.071,1.0681,1.0739,1.0749,1.0799,1.0821,1.0786,1.079,1.0931,1.0933,1.0935,1.0945,0,0,0,0,0,0,1.0496,1.0511,1.053,1.0572,1.0588,1.0661,1.0647,1.0653,1.0677,1.0676,1.0718,1.0723,1.0739,1.0793,1.0803,1.0827,1.0793,1.0929,1.0932,1.0934,1.0943,1.0947,1.0951,0,0,0,0,0,1.0491,1.0528,1.0531,1.0543,1.0612,1.0662,1.0671,1.0689,1.0678,1.0698,1.0721,1.0722,1.0817,1.0798,1.0809,1.0835,1.0927,1.0931,1.0934,1.0941,1.0946,1.0951,0,0,0,0,0,0,1.0486,1.0534,1.0537,1.059,1.0622,1.0663,1.0688,1.0693,1.0728,1.0726,1.0746,1.0756,1.0805,1.0825,1.0802,1.0887,1.0871,1.0877,1.0872,1.0878,1.0882,1.0877,1.0797,0,0,0,0,0,1.0491,1.0528,1.0567,1.061,1.0626,1.0655,1.0677,1.0688,1.0722,1.0735,1.0761,1.0794,1.0832,1.0855,1.0891,1.0945,1.0956,1.0969,1.0973,1.0976,1.0981,1.1014,1.1021,1.0947,1.0947,1.0947,0,0,1.0502,1.0533,1.0554,1.061,1.0636,1.0674,1.0666,1.0705,1.0734,1.0741,1.079,1.0811,1.0849,1.0902,1.0926,1.0919,1.1004,1.098,1.0983,1.0986,1.1018,1.1025,1.1032,1.0949,1.0948,1.0948,0,0,1.0541,1.0567,1.0607,1.0635,1.0675,1.0695,1.0704,1.0746,1.0761,1.0811,1.0818,1.0852,1.0915,1.0943,1.0965,1.1019,1.1022,1.103,1.1052,1.1084,1.109,1.1095,1.1117,1.1124,1.1035,1.1035,1.1035,0,1.0549,1.0607,1.0627,1.0668,1.0693,1.0703,1.0744,1.0769,1.0819,1.0837,1.0828,1.0911,1.0936,1.0998,1.1011,1.1028,1.1041,1.1026,1.1088,1.1093,1.1098,1.1119,1.1127,1.1036,1.1036,1.1036,1.1036,0,1.0616,1.0656,1.0684,1.0734,1.0762,1.0803,1.083,1.0856,1.0866,1.0886,1.0939,1.097,1.1015,1.103,1.1038,1.1093,1.1088,1.1083,1.1069,1.1106,1.1126,1.1134,1.1037,1.1037,1.1037,1.1036,0,0,1.0653,1.0717,1.0726,1.0751,1.0798,1.083,1.0872,1.0917,1.094,1.0975,1.1012,1.1067,1.1064,1.109,1.1102,1.113,1.1174,1.1122,1.1123,1.1132,1.1239,1.1243,1.1252,1.1176,1.1178,1.1179,1.1237,0,1.0699,1.0776,1.0796,1.0861,1.09,1.0912,1.0949,1.0982,1.1003,1.1039,1.1061,1.1101,1.1093,1.1109,1.1137,1.1162,1.1196,1.1158,1.1211,1.1213,1.1203,1.1262,1.1266,1.1319,1.1244,1.1246,1.1247,0,1.0763,1.0802,1.0872,1.0917,1.0934,1.0967,1.1012,1.1046,1.1085,1.1098,1.1129,1.1139,1.1184,1.1167,1.1231,1.1205,1.1228,1.1244,1.1247,1.1253,1.1233,1.1272,1.1336,1.1345,1.1259,1.1258,1.1257,0,1.0786,1.0856,1.0907,1.0928,1.0981,1.1005,1.1028,1.1066,1.1093,1.1132,1.115,1.1193,1.1217,1.125,1.1272,1.1257,1.1335,1.1319,1.1349,1.1348,1.1365,1.1364,1.1436,1.1377,1.1377,1.1377,1.1377,0,1.0837,1.088,1.0919,1.0951,1.1,1.1023,1.1071,1.1094,1.1129,1.1166,1.1177,1.1212,1.1238,1.1277,1.1294,1.1346,1.1356,1.1369,1.1374,1.1369,1.1368,1.1385,1.1383,1.1379,1.1379,1.1378,1.1378,0,1.0871,1.0899,1.0956,1.1004,1.1017,1.1051,1.1092,1.1123,1.1146,1.1193,1.1205,1.124,1.1286,1.1312,1.1368,1.1381,1.1439,1.1441,1.1427,1.1429,1.1458,1.1456,1.1545,1.1559,1.1489,1.149,1.1491,0,1.0902,1.0936,1.0988,1.1015,1.1039,1.1081,1.111,1.1135,1.1164,1.1213,1.1239,1.1286,1.1326,1.1399,1.1429,1.1474,1.1478,1.1506,1.1484,1.148,1.1481,1.1479,1.1484,1.151,1.1511,1.1511,1.1511,0,1.0956,1.0969,1.101,1.1057,1.1091,1.1129,1.1166,1.1187,1.1218,1.1251,1.1299,1.133,1.139,1.1438,1.1486,1.151,1.1517,1.1518,1.1528,1.1524,1.1516,1.1523,1.1439,1.1516,1.1516,1.1515,1.1515,1.1515,1.0991,1.1023,1.1065,1.1112,1.1143,1.1179,1.1212,1.124,1.1281,1.1333,1.1345,1.1397,1.1437,1.1503,1.1528,1.1569,1.1564,1.1577,1.1581,1.1585,1.1587,1.1508,1.1578,1.1578,1.1578,1.1578,1.1577,0,1.1047,1.1076,1.1118,1.1172,1.1209,1.1213,1.1256,1.1286,1.1332,1.137,1.1409,1.1467,1.1513,1.1549,1.1597,1.1623,1.1628,1.1635,1.1634,1.164,1.1588,1.1576,1.1631,1.1631,1.1631,1.1631,1.1631,1.1631,1.108,1.1136,1.1154,1.1226,1.1254,1.1306,1.133,1.1364,1.1395,1.1458,1.1498,1.1521,1.1559,1.161,1.1654,1.1663,1.1681,1.1689,1.1698,1.1649,1.1643,1.1638,1.1627,1.1692,1.1692,1.1748,1.1748,1.1749]}]]